sat.trackr.live / text

‹ back to catalog

STARLINK-6222

NORAD 56481 · 2023-064AK

PAYLOAD ACTIVE UNKNOWN

§ Identity

Operator
Country
US
Launch date
2023-05-10
Launch site
AFWTR
Launch vehicle
Mass (kg)
RCS (m²)

Purposes: comms

External: N2YO · Heavens-Above · Gunter

§ Orbital elements

Epoch: 2026-05-25T03:24:03.972960Z

Period
96.11 min
Inclination
69.9982°
Eccentricity
0.0003146
Mean motion
14.98324192 rev/d
Perigee alt
569.9 km
Apogee alt
574.3 km
Semi-major
6,950.2 km
B*
-9.3978e-5
RAAN
291.5855°
Arg perigee
267.3805°
Mean anomaly
92.6994°
Rev number
16,719

§ Raw data

STARLINK-62221 56481U 23064AK  26145.14171265 -.00001214  00000+0 -93978-4 0  99932 56481  69.9982 291.5855 0003146 267.3805  92.6994 14.98324192167195

JSON: /api/v1/satellites/56481 · /tle

For live sub-satellite position, see the globe view (requires WebGL).

§ Visibility from observer

Set your observer location to see the next 7 days of passes ≥ 10°. The values pass through the URL so the page stays shareable.

No JS? Fill the form by hand. The geolocation button needs JavaScript.